{"data":{"norad_id":48046,"epoch":"2026-05-25T04:43:54.280128Z","epoch_age_seconds":51246,"freshness":"FRESH","line1":"1 48046U 21025E   26145.19715602  .00000124  00000+0  30358-3 0  9999","line2":"2 48046  87.8951 324.7959 0001829  87.0354 273.0984 13.13471286250633","mean_motion":13.13471286,"eccentricity":0.0001829,"inclination_deg":87.8951,"raan_deg":324.7959,"arg_perigee_deg":87.0354,"mean_anomaly_deg":273.0984,"bstar":0.00030358,"rev_number":25063,"period_min":109.63315417312,"perigee_km":1208.3726206556,"apogee_km":1211.1482735417,"semimajor_km":7587.8974470986,"source":"CELESTRAK","updated_at":"2026-05-25T13:38:22.388245Z"}}